Location: Unspecified
(0.0000°N, 0.0000°E)
Time: 07:41:12
(UTC+00:00)

Courier 1B - Pass Details

Date: 01 October 2023
Orbit: 962 x 1208 km, 28.3° (Epoch: 06 December)

Event Time Altitude Azimuth Distance (km) Brightness Sun altitude
Rises 15:53:19 0° 327° (NNW) 4,096 11.1 29.0°
Reaches altitude 10° 15:57:59 10° 351° (N) 3,132 10.3 27.9°
Maximum altitude 16:01:44 14° 20° (NNE) 2,828 9.8 26.9°
Drops below altitude 10° 16:05:27 10° 50° (NE) 3,102 9.8 26.0°
Sets 16:10:00 0° 74° (ENE) 4,029 10.2 24.9°
